GW7120 Weather Reports


time (UTC)temp
C
wind
direction
speed
KPH
gust
KPH
rain 1hr
cm
rain 24hr
cm
rain mn
cm
humidity
%
barometer
mb
20260507125258 10 38 0.0 1.6 0.00 0.00 0.00 96 1017.7
20260507124755 10 307 0.0 0.0 0.00 0.00 0.00 95 1017.9
20260507124251 10 307 0.0 0.0 0.00 0.00 0.00 95 1017.8
20260507123749 10 306 0.0 0.0 0.00 0.00 0.00 95 1017.6
20260507123247 10 306 1.6 1.6 0.00 0.00 0.00 94 1017.6
20260507122742 10 306 0.0 1.6 0.00 0.00 0.00 94 1017.5
20260507122238 10 64 0.0 1.6 0.00 0.00 0.00 94 1017.4
20260507121734 10 312 1.6 1.6 0.00 0.00 0.00 95 1017.6
20260507121230 10 312 1.6 3.2 0.00 0.00 0.00 95 1017.5
20260507120726 10 326 3.2 3.2 0.00 0.00 0.00 96 1017.5
20260507120224 10 339 1.6 1.6 0.00 0.00 0.00 96 1017.4
20260507115719 10 339 1.6 3.2 0.00 0.00 0.00 96 1017.4
20260507115215 10 0 1.6 1.6 0.00 0.00 0.00 96 1017.3
20260507114711 10 0 0.0 1.6 0.00 0.00 0.00 96 1017.3
20260507114209 10 0 0.0 1.6 0.00 0.00 0.00 96 1017.3
20260507113706 10 0 1.6 1.6 0.00 0.00 0.00 97 1017.5
20260507113203 9 4 1.6 1.6 0.00 0.00 0.00 97 1017.4
20260507112700 9 11 0.0 1.6 0.00 0.00 0.00 96 1017.4
20260507112157 9 348 0.0 0.0 0.00 0.00 0.00 97 1017.3
20260507111655 9 94 0.0 0.0 0.00 0.00 0.00 96 1017.4
20260507111151 10 94 0.0 1.6 0.00 0.00 0.00 96 1017.4
20260507110647 10 339 1.6 1.6 0.00 0.00 0.00 96 1017.5
20260507110144 10 90 0.0 0.0 0.00 0.00 0.00 97 1017.6
20260507105641 10 317 3.2 3.2 0.00 0.00 0.00 97 1017.5
20260507105137 10 335 1.6 1.6 0.00 0.00 0.00 97 1017.7
20260507104634 10 32 0.0 0.0 0.00 0.00 0.00 97 1017.6
20260507104131 10 330 0.0 0.0 0.00 0.00 0.00 97 1017.6
20260507103627 10 340 0.0 0.0 0.00 0.00 0.00 97 1017.7
20260507103124 10 323 0.0 1.6 0.00 0.00 0.00 97 1017.8
20260507102620 10 323 1.6 3.2 0.00 0.00 0.00 97 1017.7
20260507102116 10 328 0.0 1.6 0.00 0.00 0.00 97 1017.9
20260507101612 9 3 0.0 0.0 0.00 0.00 0.00 97 1017.8
20260507101108 9 335 0.0 0.0 0.00 0.00 0.00 97 1017.8
20260507100605 9 335 0.0 0.0 0.00 0.00 0.00 97 1017.8
20260507100104 9 335 0.0 0.0 0.00 0.00 0.00 97 1018.0
20260507095602 9 335 0.0 0.0 0.00 0.00 0.00 97 1017.9
20260507095058 10 335 0.0 0.0 0.00 0.00 0.00 97 1018.0
20260507094554 10 334 0.0 0.0 0.00 0.00 0.00 96 1018.0
20260507094051 10 334 0.0 0.0 0.00 0.00 0.00 96 1018.0
20260507093549 10 334 0.0 1.6 0.00 0.00 0.00 96 1018.1
20260507093047 10 335 1.6 1.6 0.00 0.00 0.00 96 1018.2
20260507092543 9 45 0.0 0.0 0.00 0.00 0.00 96 1018.2
20260507092040 9 45 0.0 0.0 0.00 0.00 0.00 96 1018.1
20260507091537 10 326 0.0 0.0 0.00 0.00 0.00 96 1018.3
20260507091033 10 324 0.0 1.6 0.00 0.00 0.00 96 1018.2
20260507090529 10 324 3.2 3.2 0.00 0.00 0.00 96 1018.4
20260507090026 10 328 1.6 1.6 0.00 0.00 0.00 96 1018.5
20260507085523 10 342 0.0 1.6 0.00 0.00 0.00 96 1018.5
20260507085020 10 333 1.6 1.6 0.00 0.00 0.00 96 1018.5
20260507084516 10 345 1.6 3.2 0.00 0.00 0.00 96 1018.7
20260507084014 10 347 3.2 3.2 0.00 0.00 0.00 96 1018.6
20260507083509 10 21 0.0 0.0 0.00 0.00 0.00 96 1018.7
20260507083007 10 21 0.0 0.0 0.00 0.00 0.00 96 1018.8
20260507082503 10 21 0.0 0.0 0.00 0.00 0.00 96 1018.7
20260507081959 10 21 0.0 0.0 0.00 0.00 0.00 96 1018.8
20260507081455 10 33 0.0 0.0 0.00 0.00 0.00 96 1018.8
20260507080952 10 17 0.0 0.0 0.00 0.00 0.00 96 1018.9
20260507080448 10 17 0.0 0.0 0.00 0.00 0.00 96 1018.9
20260507075943 10 20 0.0 0.0 0.00 0.00 0.00 96 1018.7
20260507075440 10 20 0.0 0.0 0.00 0.00 0.00 96 1018.9
20260507074937 10 20 0.0 1.6 0.00 0.00 0.00 96 1018.8
20260507074434 10 21 0.0 0.0 0.00 0.00 0.00 96 1019.1
20260507073932 10 58 0.0 0.0 0.00 0.00 0.00 96 1018.9
20260507073428 10 82 0.0 0.0 0.00 0.00 0.00 96 1018.8
20260507072925 10 82 0.0 0.0 0.00 0.00 0.00 95 1018.9
20260507072422 10 81 0.0 0.0 0.00 0.00 0.00 95 1019.1
20260507071920 10 101 0.0 0.0 0.00 0.00 0.00 95 1018.9
20260507071417 10 101 0.0 0.0 0.00 0.00 0.00 94 1019.2
20260507070913 10 57 1.6 1.6 0.00 0.00 0.00 94 1019.2
20260507070410 10 97 0.0 0.0 0.00 0.00 0.00 94 1019.3
20260507065907 10 98 1.6 1.6 0.00 0.00 0.00 94 1019.2
20260507065403 11 9 1.6 3.2 0.00 0.00 0.00 94 1019.2
20260507064900 11 317 0.0 0.0 0.00 0.00 0.00 94 1019.1
20260507064359 11 328 0.0 0.0 0.00 0.00 0.00 94 1019.4
20260507063857 11 328 0.0 0.0 0.00 0.00 0.00 94 1019.3
20260507063353 11 333 0.0 0.0 0.00 0.00 0.00 94 1019.2
20260507062850 11 22 0.0 0.0 0.00 0.00 0.00 94 1019.5
20260507062347 11 313 0.0 0.0 0.00 0.00 0.00 93 1019.3
20260507061845 11 336 1.6 1.6 0.00 0.00 0.00 93 1019.3
20260507061343 11 325 0.0 0.0 0.00 0.00 0.00 93 1019.2
20260507060841 11 338 0.0 0.0 0.00 0.00 0.00 93 1019.3
20260507060337 11 54 0.0 0.0 0.00 0.00 0.00 93 1019.4
20260507055834 11 292 0.0 0.0 0.00 0.00 0.00 92 1019.4
20260507055329 11 329 0.0 0.0 0.00 0.00 0.00 92 1019.2
20260507054826 11 76 0.0 0.0 0.00 0.00 0.00 92 1019.4
20260507054322 11 95 0.0 0.0 0.00 0.00 0.00 92 1019.3
20260507053820 11 95 0.0 0.0 0.00 0.00 0.00 92 1019.3
20260507053317 11 101 0.0 0.0 0.00 0.00 0.00 91 1019.3
20260507052816 11 286 0.0 0.0 0.00 0.00 0.00 91 1019.4
20260507052312 11 298 0.0 0.0 0.00 0.00 0.00 91 1019.4
20260507051810 11 303 0.0 0.0 0.00 0.00 0.00 91 1019.4
20260507051308 12 330 0.0 0.0 0.00 0.00 0.00 90 1019.4
20260507050804 11 303 0.0 0.0 0.00 0.00 0.00 90 1019.4
20260507050300 12 303 0.0 0.0 0.00 0.00 0.00 89 1019.2
20260507045757 12 308 0.0 0.0 0.00 0.00 0.00 89 1019.2
20260507045253 12 308 0.0 0.0 0.00 0.00 0.00 89 1019.3
20260507044751 12 309 0.0 0.0 0.00 0.00 0.00 88 1019.3
20260507044247 12 302 0.0 0.0 0.00 0.00 0.00 88 1018.9
20260507043743 12 303 0.0 0.0 0.00 0.00 0.00 88 1019.2
20260507043240 12 234 0.0 0.0 0.00 0.00 0.00 87 1019.3
20260507042736 12 234 0.0 0.0 0.00 0.00 0.00 87 1019.2
20260507042232 12 234 0.0 0.0 0.00 0.00 0.00 87 1019.3
20260507041730 12 234 0.0 0.0 0.00 0.00 0.00 87 1019.1
20260507041226 12 234 0.0 0.0 0.00 0.00 0.00 86 1019.3
20260507040723 13 234 0.0 0.0 0.00 0.00 0.00 85 1019.2
20260507040219 13 265 0.0 0.0 0.00 0.00 0.00 83 1019.1
20260507035715 13 289 0.0 0.0 0.00 0.00 0.00 83 1019.1
20260507035211 13 290 0.0 0.0 0.00 0.00 0.00 82 1019.1
20260507034708 13 276 0.0 0.0 0.00 0.00 0.00 82 1019.1
20260507034205 13 274 0.0 0.0 0.00 0.00 0.00 81 1018.9
20260507033704 13 261 0.0 0.0 0.00 0.00 0.00 80 1018.7
20260507033201 13 263 0.0 0.0 0.00 0.00 0.00 80 1018.8
20260507032658 13 262 0.0 0.0 0.00 0.00 0.00 79 1018.7
20260507032154 14 261 0.0 0.0 0.00 0.00 0.00 79 1018.6
20260507031651 14 224 0.0 0.0 0.00 0.00 0.00 78 1018.6
20260507031147 14 229 0.0 0.0 0.00 0.00 0.00 78 1018.8
20260507030644 14 229 0.0 0.0 0.00 0.00 0.00 78 1018.7
20260507030142 15 229 0.0 0.0 0.00 0.00 0.00 77 1018.6
20260507025639 15 229 1.6 1.6 0.00 0.00 0.00 76 1018.6
20260507025136 15 252 0.0 0.0 0.00 0.00 0.00 75 1018.5
20260507024634 15 272 0.0 0.0 0.00 0.00 0.00 74 1018.4
20260507024131 15 263 0.0 1.6 0.00 0.00 0.00 74 1018.3
20260507023626 16 244 0.0 1.6 0.00 0.00 0.00 73 1018.4
20260507023124 16 242 0.0 0.0 0.00 0.00 0.00 72 1018.3
20260507022621 16 22 0.0 0.0 0.00 0.00 0.00 71 1018.2
20260507022116 16 266 0.0 1.6 0.00 0.00 0.00 71 1018.3
20260507021613 16 257 0.0 1.6 0.00 0.00 0.00 70 1018.2
20260507021108 17 266 0.0 3.2 0.00 0.00 0.00 69 1018.2
20260507020607 17 266 0.0 1.6 0.00 0.00 0.00 69 1018.1
20260507015602 17 278 0.0 3.2 0.00 0.00 0.00 68 1018.1
20260507015058 17 294 3.2 3.2 0.00 0.00 0.00 68 1018.3
20260507014555 17 264 0.0 1.6 0.00 0.00 0.00 68 1018.3
20260507014051 17 268 1.6 4.8 0.00 0.00 0.00 68 1018.1
20260507013548 18 257 4.8 6.4 0.00 0.00 0.00 67 1018.3
20260507013045 18 212 1.6 1.6 0.00 0.00 0.00 67 1017.9
20260507012542 18 265 1.6 3.2 0.00 0.00 0.00 67 1017.9
20260507012038 18 234 0.0 3.2 0.00 0.00 0.00 67 1018.1
20260507011536 18 251 0.0 3.2 0.00 0.00 0.00 66 1018.2
20260507011032 18 285 0.0 1.6 0.00 0.00 0.00 66 1018.0
20260507010526 18 246 1.6 3.2 0.00 0.00 0.00 66 1018.0
20260507010023 19 260 3.2 3.2 0.00 0.00 0.00 65 1018.0
20260507005521 19 309 1.6 1.6 0.00 0.00 0.00 65 1017.8
20260507005017 18 254 4.8 4.8 0.00 0.00 0.00 65 1017.8
20260507004514 20 258 6.4 6.4 0.00 0.00 0.00 63 1018.0
20260507004011 21 288 3.2 6.4 0.00 0.00 0.00 60 1017.9
20260507003506 20 246 0.0 3.2 0.00 0.00 0.00 60 1017.9
20260507003001 21 284 3.2 6.4 0.00 0.00 0.00 58 1017.9
20260507002458 20 263 1.6 6.4 0.00 0.00 0.00 60 1017.8
20260507001955 21 274 3.2 3.2 0.00 0.00 0.00 58 1018.0
20260507001451 21 245 1.6 3.2 0.00 0.00 0.00 57 1017.8
20260507000949 21 225 1.6 3.2 0.00 0.00 0.00 57 1017.6
20260507000445 21 297 1.6 6.4 0.00 0.00 0.00 58 1017.6
20260506235940 21 274 3.2 6.4 0.00 0.00 0.00 58 1017.7
20260506235438 21 209 4.8 4.8 0.00 0.00 0.00 57 1017.6
20260506234933 21 338 3.2 4.8 0.00 0.00 0.00 57 1017.6
20260506234431 21 310 4.8 6.4 0.00 0.00 0.00 56 1017.6
20260506233929 21 240 3.2 9.7 0.00 0.00 0.00 60 1017.5
20260506233425 21 259 6.4 9.7 0.00 0.00 0.00 58 1017.6
20260506232921 22 260 3.2 4.8 0.00 0.00 0.00 56 1017.6
20260506232418 22 220 3.2 6.4 0.00 0.00 0.00 54 1017.6
20260506231914 21 327 3.2 4.8 0.00 0.00 0.00 56 1017.5
20260506231412 21 243 1.6 4.8 0.00 0.00 0.00 56 1017.4
20260506230909 22 313 3.2 4.8 0.00 0.00 0.00 53 1017.5
20260506230405 21 168 1.6 6.4 0.00 0.00 0.00 55 1017.5
20260506225901 22 198 6.4 9.7 0.00 0.00 0.00 53 1017.6
20260506225359 22 273 3.2 6.4 0.00 0.00 0.00 54 1017.7
20260506224856 22 262 4.8 6.4 0.00 0.00 0.00 53 1017.6
20260506224353 21 275 3.2 9.7 0.00 0.00 0.00 57 1017.6
20260506223849 22 270 3.2 9.7 0.00 0.00 0.00 54 1017.6
20260506223344 21 188 3.2 17.7 0.00 0.00 0.00 57 1017.6
20260506222842 22 264 4.8 6.4 0.00 0.00 0.00 53 1017.9
20260506222337 22 243 6.4 20.9 0.00 0.00 0.00 58 1017.8
20260506221836 21 165 1.6 12.9 0.00 0.00 0.00 58 1017.8
20260506221333 22 248 3.2 4.8 0.00 0.00 0.00 55 1017.8
20260506220830 21 242 9.7 17.7 0.00 0.00 0.00 58 1017.8
20260506220325 22 10 3.2 12.9 0.00 0.00 0.00 55 1017.6
20260506215823 22 197 4.8 9.7 0.00 0.00 0.00 57 1017.8
20260506215318 21 235 11.3 20.9 0.00 0.00 0.00 56 1018.0
20260506214814 21 332 8.0 16.1 0.00 0.00 0.00 57 1017.8
20260506214311 22 275 9.7 12.9 0.00 0.00 0.00 52 1017.8
20260506213810 22 224 6.4 16.1 0.00 0.00 0.00 53 1018.0
20260506213306 23 279 3.2 6.4 0.00 0.00 0.00 49 1018.1
20260506212804 23 300 3.2 4.8 0.00 0.00 0.00 48 1018.0
20260506212259 23 247 3.2 9.7 0.00 0.00 0.00 48 1017.9
20260506211754 21 228 6.4 12.9 0.00 0.00 0.00 53 1018.0
20260506211251 22 192 3.2 14.5 0.00 0.00 0.00 50 1018.1
20260506210748 22 228 6.4 12.9 0.00 0.00 0.00 49 1018.3
20260506210245 22 243 1.6 14.5 0.00 0.00 0.00 49 1018.2
20260506205742 23 236 4.8 11.3 0.00 0.00 0.00 48 1018.1
20260506205238 23 248 3.2 9.7 0.00 0.00 0.00 46 1018.3
20260506204735 23 51 3.2 4.8 0.00 0.00 0.00 46 1018.2
20260506204232 21 257 1.6 9.7 0.00 0.00 0.00 48 1018.4
20260506203730 22 251 4.8 9.7 0.00 0.00 0.00 48 1018.3
20260506203227 23 289 1.6 4.8 0.00 0.00 0.00 46 1018.3
20260506202725 23 265 1.6 4.8 0.00 0.00 0.00 44 1018.4
20260506202221 23 245 3.2 11.3 0.00 0.00 0.00 46 1018.3
20260506201718 22 319 1.6 3.2 0.00 0.00 0.00 48 1018.4
20260506201214 22 278 3.2 6.4 0.00 0.00 0.00 47 1018.5
20260506200711 22 257 6.4 6.4 0.00 0.00 0.00 48 1018.7
20260506200208 21 225 8.0 12.9 0.00 0.00 0.00 49 1018.6
20260506195704 20 307 6.4 9.7 0.00 0.00 0.00 52 1018.7
20260506195201 21 211 4.8 11.3 0.00 0.00 0.00 51 1018.8
20260506194659 21 264 3.2 6.4 0.00 0.00 0.00 53 1018.8
20260506194154 21 221 4.8 6.4 0.00 0.00 0.00 55 1019.1
20260506193652 21 195 6.4 9.7 0.00 0.00 0.00 54 1018.8
20260506193149 20 275 3.2 12.9 0.00 0.00 0.00 55 1018.9
20260506192646 22 209 4.8 4.8 0.00 0.00 0.00 49 1019.1
20260506192142 21 225 4.8 6.4 0.00 0.00 0.00 52 1019.1
20260506191639 21 6 0.0 3.2 0.00 0.00 0.00 52 1019.1
20260506191135 21 312 3.2 3.2 0.00 0.00 0.00 51 1019.3
20260506190633 21 242 3.2 4.8 0.00 0.00 0.00 52 1019.2
20260506190129 20 280 1.6 4.8 0.00 0.00 0.00 53 1019.2
20260506185626 21 199 3.2 12.9 0.00 0.00 0.00 54 1019.2
20260506185122 20 284 3.2 6.4 0.00 0.00 0.00 54 1019.2
20260506184620 20 257 0.0 3.2 0.00 0.00 0.00 55 1019.2
20260506184117 19 343 3.2 4.8 0.00 0.00 0.00 54 1019.3
20260506183614 19 273 4.8 6.4 0.00 0.00 0.00 56 1019.3
20260506183110 20 293 0.0 4.8 0.00 0.00 0.00 55 1019.3
20260506182608 20 259 3.2 6.4 0.00 0.00 0.00 58 1019.4
20260506182104 18 214 0.0 3.2 0.00 0.00 0.00 58 1019.5
20260506181602 19 240 3.2 9.7 0.00 0.00 0.00 58 1019.5
20260506181059 18 314 3.2 4.8 0.00 0.00 0.00 59 1019.6
20260506180556 18 229 1.6 6.4 0.00 0.00 0.00 60 1019.7
20260506180052 18 244 8.0 9.7 0.00 0.00 0.00 58 1019.4
20260506175548 18 222 0.0 6.4 0.00 0.00 0.00 62 1019.6
20260506175044 18 264 8.0 11.3 0.00 0.00 0.00 59 1019.7
20260506174544 17 233 1.6 6.4 0.00 0.00 0.00 61 1019.7
20260506174039 17 315 3.2 9.7 0.00 0.00 0.00 64 1019.7
20260506173537 17 287 3.2 4.8 0.00 0.00 0.00 61 1019.5
20260506173034 17 263 4.8 4.8 0.00 0.00 0.00 60 1019.6
20260506172531 17 261 6.4 11.3 0.00 0.00 0.00 62 1019.8
20260506172027 16 260 4.8 11.3 0.00 0.00 0.00 63 1019.6
20260506171525 16 343 3.2 9.7 0.00 0.00 0.00 63 1019.7
20260506171022 17 280 1.6 4.8 0.00 0.00 0.00 62 1019.9
20260506170520 16 267 1.6 6.4 0.00 0.00 0.00 65 1019.6
20260506170018 16 46 3.2 6.4 0.00 0.00 0.00 66 1019.6
20260506165516 15 332 3.2 4.8 0.00 0.00 0.00 64 1019.6
20260506165011 15 266 6.4 9.7 0.00 0.00 0.00 65 1019.5
20260506164508 15 265 4.8 4.8 0.00 0.00 0.00 65 1019.7
20260506164006 15 334 3.2 6.4 0.00 0.00 0.00 67 1019.6
20260506163502 15 256 3.2 6.4 0.00 0.00 0.00 67 1019.6
20260506162956 13 177 4.8 9.7 0.00 0.00 0.00 71 1019.7
20260506162454 14 233 1.6 9.7 0.00 0.00 0.00 73 1019.8
20260506161951 14 339 3.2 4.8 0.00 0.00 0.00 69 1019.6
20260506161449 13 218 3.2 4.8 0.00 0.00 0.00 73 1019.5
20260506160946 13 256 3.2 4.8 0.00 0.00 0.00 72 1019.5
20260506160443 13 50 1.6 3.2 0.00 0.00 0.00 70 1019.5
20260506155940 13 221 1.6 4.8 0.00 0.00 0.00 73 1019.6
20260506155438 13 194 1.6 4.8 0.00 0.00 0.00 75 1019.7
20260506153605 12 265 3.2 4.8 0.00 0.00 0.00 75 1019.7
20260506153102 12 288 0.0 3.2 0.00 0.00 0.00 77 1019.7
20260506152559 12 256 1.6 4.8 0.00 0.00 0.00 77 1019.6
20260506152057 12 198 3.2 3.2 0.00 0.00 0.00 78 1019.7
20260506151555 11 267 1.6 4.8 0.00 0.00 0.00 79 1019.7
20260506151052 11 244 0.0 4.8 0.00 0.00 0.00 79 1019.7
20260506150548 11 218 1.6 4.8 0.00 0.00 0.00 80 1019.5
20260506150045 11 106 0.0 1.6 0.00 0.00 0.00 82 1019.5
20260506145542 10 103 3.2 4.8 0.00 0.00 0.00 84 1019.7
20260506145039 10 120 3.2 4.8 0.00 0.00 0.00 86 1019.8
20260506144536 9 126 1.6 3.2 0.00 0.00 0.00 89 1019.7
20260506144033 8 143 1.6 1.6 0.00 0.00 0.00 91 1019.8
20260506143531 8 144 1.6 1.6 0.00 0.00 0.00 92 1019.6
20260506143029 8 139 0.0 3.2 0.00 0.00 0.00 93 1019.5
20260506142526 8 124 1.6 3.2 0.00 0.00 0.00 95 1019.6
20260506142025 7 129 0.0 1.6 0.00 0.00 0.00 96 1019.6
20260506141522 7 137 1.6 1.6 0.00 0.00 0.00 96 1019.6
20260506141020 7 123 1.6 1.6 0.00 0.00 0.00 98 1019.6
20260506140517 6 122 0.0 0.0 0.00 0.00 0.00 98 1019.6
20260506140015 6 110 0.0 1.6 0.00 0.00 0.00 98 1019.5
20260506135511 6 110 0.0 1.6 0.00 0.00 0.00 98 1019.5
20260506135007 6 112 0.0 1.6 0.00 0.00 0.00 98 1019.5
20260506134503 6 69 0.0 0.0 0.00 0.00 0.00 99 1019.4
20260506134000 6 103 0.0 0.0 0.00 0.00 0.00 99 1019.4
20260506133457 5 80 0.0 0.0 0.00 0.00 0.00 99 1019.3
20260506132954 5 92 0.0 0.0 0.00 0.00 0.00 98 1019.5
20260506132451 6 81 0.0 0.0 0.00 0.00 0.00 99 1019.4
20260506131948 5 61 0.0 0.0 0.00 0.00 0.00 99 1019.1
20260506131445 5 356 0.0 0.0 0.00 0.00 0.00 99 1019.3
20260506130942 5 349 1.6 3.2 0.00 0.00 0.00 99 1018.8
20260506130439 5 338 0.0 0.0 0.00 0.00 0.00 99 1018.8
20260506125936 5 334 0.0 0.0 0.00 0.00 0.00 99 1019.1
20260506125434 5 334 0.0 0.0 0.00 0.00 0.00 98 1018.7